WetterOnline ( https://www.wetteronline.de )

Wetter aktuell Senftenberg

Aktuelles Wetter: Hoyerswerda (116m)

6-stündlich | Neueste Meldungen
Ortszeit Temperatur Wetter
Di, 25.01. 13:00 3.5° C Regen
Di, 25.01. 7:00 3.8° C Sprühregen
Di, 25.01. 1:00 4.3° C Sprühregen
Mo, 24.01. 19:00 4.6° C bedeckt
Mo, 24.01. 13:00 5.4° C leichter Regen
Mo, 24.01. 7:00 3.4° C Nebel
Mo, 24.01. 1:00 3.9° C bewölkt
So, 23.01. 19:00 4.4° C bedeckt
Ortszeit Temperatur Wetter
Di, 25.01. 18:00 2.5° C Sprühregen
Di, 25.01. 17:30 2.8° C bewölkt
Di, 25.01. 17:00 3.0° C Sprühregen
Di, 25.01. 16:30 3.3° C Sprühregen
Di, 25.01. 16:00 3.4° C leichter Regen
Di, 25.01. 15:30 3.4° C leichter Regen
Di, 25.01. 15:00 3.8° C bedeckt
Ortszeit Relative Feuchte Sichtweite
Di, 25.01. 13:00 87% 22 km
Di, 25.01. 7:00 94% 6 km
Di, 25.01. 1:00 96% 9 km
Mo, 24.01. 19:00 97% 40 km
Mo, 24.01. 13:00 94% 8 km
Mo, 24.01. 7:00 99% 0.8 km
Mo, 24.01. 1:00 97% 15 km
So, 23.01. 19:00 97% 17 km
Ortszeit Relative Feuchte Sichtweite
Di, 25.01. 18:00 91% 12 km
Di, 25.01. 17:30 90% 14 km
Di, 25.01. 17:00 90% 14 km
Di, 25.01. 16:30 87% 22 km
Di, 25.01. 16:00 85% 20 km
Di, 25.01. 15:30 84% 13 km
Di, 25.01. 15:00 82% 40 km
Ortszeit Niederschlagsmenge Niederschlagsart
Di, 25.01. 13:00 0.4 l/m2 in 6 Std. Regen
Di, 25.01. 7:00 0.1 l/m2 in 12 Std. Regen
Di, 25.01. 1:00 0.1 l/m2 in 6 Std. Regen
Mo, 24.01. 19:00 0.2 l/m2 in 12 Std. Regen
Mo, 24.01. 13:00 0.1 l/m2 in 6 Std. Regen
Mo, 24.01. 7:00 0.6 l/m2 in 12 Std. Sprühregen
Mo, 24.01. 1:00 0.6 l/m2 in 6 Std. Regen
So, 23.01. 19:00 0.5 l/m2 in 12 Std. Regen
Ortszeit Niederschlagsmenge Niederschlagsart
Di, 25.01. 18:00 0.1 l/m2 in 1 Std. Regen
Di, 25.01. 17:30 0.1 l/m2 in 1 Std. Schnee
Di, 25.01. 17:00 0.1 l/m2 in 1 Std. Regen
Di, 25.01. 16:30 0.1 l/m2 in 1 Std. -
Di, 25.01. 16:00 0.1 l/m2 in 1 Std. Regen
Di, 25.01. 15:30 0.1 l/m2 in 1 Std. -
Di, 25.01. 15:00 0.0 l/m2 in 1 Std. -
Ortszeit Stärke Spitze Richtung
km/h Bft. km/h Grad Sektor
Di, 25.01. 13:00 17 3 26 300° NW
Di, 25.01. 7:00 11 2 22 300° NW
Di, 25.01. 1:00 7 2 11 250° W
Mo, 24.01. 19:00 6 1 11 270° W
Mo, 24.01. 13:00 7 2 11 170° S
Mo, 24.01. 7:00 4 1 7 240° SW
Mo, 24.01. 1:00 7 2 14 290° W
So, 23.01. 19:00 7 2 22 300° NW
Ortszeit Stärke Spitze Richtung
km/h Bft. km/h Grad Sektor
Di, 25.01. 18:00 14 3 22 260° W
Di, 25.01. 17:30 11 2 17 260° W
Di, 25.01. 17:00 11 2 18 260° W
Di, 25.01. 16:30 13 3 17 260° W
Di, 25.01. 16:00 13 3 24 280° W
Di, 25.01. 15:30 17 3 24 290° W
Di, 25.01. 15:00 18 3 29 290° W
Ortszeit Untergrenze Bedeckung Gattung
total tief tief mittel hoch
Di, 25.01. 13:00 240 m 7/8 7/8 - - -
Di, 25.01. 7:00 180 m 8/8 8/8 - - -
Di, 25.01. 1:00 210 m 8/8 8/8 - - -
Mo, 24.01. 19:00 750 m 8/8 8/8 - - -
Mo, 24.01. 13:00 150 m 8/8 8/8 - - -
Mo, 24.01. 7:00 <30 m 8/8 0/8 - - -
Mo, 24.01. 1:00 600 m 7/8 7/8 - - -
So, 23.01. 19:00 90 m 8/8 8/8 - - -
Ortszeit Bedeckungsgrad in Achtel und Wolkenuntergrenze
Di, 25.01. 18:00 3(210m) 7(360m) 7(720m)
Di, 25.01. 17:30 7(240m) 7(990m)
Di, 25.01. 17:00 7(300m) 8(1020m)
Di, 25.01. 16:30 6(390m) 7(630m) 8(1020m)
Di, 25.01. 16:00 5(480m) 8(720m)
Di, 25.01. 15:30 5(450m) 7(630m)
Di, 25.01. 15:00 3(510m) 6(720m) 8(870m)
Ortszeit Luftdruck NN (hPa) Tendenz (hPa in 3 Std.)
Di, 25.01. 13:00 1032 - 0,3
Di, 25.01. 7:00 1032 - 0,2
Di, 25.01. 1:00 1034 - 0,5
Mo, 24.01. 19:00 1034 + 0,1
Mo, 24.01. 13:00 1035 - 0,8
Mo, 24.01. 7:00 1035 + 0,5
Mo, 24.01. 1:00 1035 + 0,5
So, 23.01. 19:00 1034 + 0,4
Ortszeit Luftdruck NN (hPa) Tendenz (hPa in 3 Std.)
Di, 25.01. 18:00 1032 + 0,4
Di, 25.01. 17:30 1032 + 0,6
Di, 25.01. 17:00 1031 + 0,1
Di, 25.01. 16:30 1031 - 0,3
Di, 25.01. 16:00 1031 - 0,8
Di, 25.01. 15:30 1031 - 1,2
Di, 25.01. 15:00 1031 - 1,4
Ortszeit Schneehöhe (cm)
Di, 25.01. 13:00 0
Di, 25.01. 7:00 0
Di, 25.01. 1:00 0
Mo, 24.01. 19:00 0
Mo, 24.01. 13:00 0
Mo, 24.01. 7:00 0
Mo, 24.01. 1:00 0
So, 23.01. 19:00 0
Ortszeit Schneehöhe (cm)
Di, 25.01. 18:00 0
Di, 25.01. 17:30 0
Di, 25.01. 17:00 0
Di, 25.01. 16:30 0
Di, 25.01. 16:00 0
Di, 25.01. 15:30 0
Di, 25.01. 15:00 0
Link zu dieser Seite / Seite empfehlen

Das Wetter in ...